Date String (YYYY-MM-DD hh:mm:ss) UTC,Instrument flags,Ambient pressure (hPa),Sample flow (lpm),Bypass flow (lpm),Sample temperature (°C),Ambient temperature (°C),ASC tube jacket temperature (°C),LED temperature (°C),Box temperature (°C),Sample RH (%),Span deviation,Mass concentration (μg/m³),Mass concentration (μg/m³),Mass concentration (μg/m³)
DateTimeUTC,F1_M11,P_M11,Q1_M11,Q2_M11,T1_M11,T2_M11,T3_M11,T4_M11,T5_M11,U1_M11,ZSPAN_M11,X2_M11,X0_M11,X1_M11
2022-09-23 14:00:00,,0825.3,5.01,0.00,29.6,28.0,00.0,38.3,31.4,18.8,-003.1,0005.35,0008.36,0004.97
2022-09-23 14:01:00,,0825.4,4.99,0.00,29.6,28.0,00.0,38.3,31.4,18.4,-001.1,0005.07,0008.21,0004.69
2022-09-23 14:02:00,,0825.4,5.01,0.00,29.6,28.0,00.0,38.3,31.4,17.3,0000.0,0004.79,0008.49,0004.41
2022-09-23 14:03:00,,0825.2,5.00,0.00,29.5,28.0,00.0,38.3,31.3,15.1,0000.0,0004.40,0008.06,0004.00
2022-09-23 14:04:00,,0825.2,4.99,0.00,29.5,27.9,00.0,38.3,31.3,15.3,0000.0,0004.20,0007.91,0003.79
2022-09-23 14:05:00,,0825.2,5.00,0.00,29.5,27.9,00.0,38.3,31.3,17.7,0000.0,0004.15,0007.86,0003.74
2022-09-23 14:06:00,,0825.3,5.01,0.00,29.5,27.9,00.0,38.3,31.3,20.6,0000.0,0004.22,0008.15,0003.82
2022-09-23 14:07:00,,0825.4,4.99,0.00,29.5,27.9,00.0,38.3,31.3,23.0,0000.0,0004.46,0009.15,0004.07
2022-09-23 14:08:00,,0825.5,5.01,0.00,29.5,28.0,00.0,38.3,31.3,24.2,0000.0,0004.80,0009.56,0004.43
2022-09-23 14:09:00,,0825.4,4.99,0.00,29.5,28.0,00.0,38.3,31.4,24.5,-002.5,0005.24,0010.01,0004.87
2022-09-23 14:10:00,,0825.4,5.00,0.00,29.5,28.1,00.0,38.3,31.4,22.8,-003.5,0005.61,0010.45,0005.22
2022-09-23 14:11:00,,0825.4,4.99,0.00,29.5,28.1,00.0,38.3,31.4,21.5,-003.5,0005.77,0010.47,0005.37
2022-09-23 14:12:00,,0825.4,5.01,0.00,29.5,28.1,00.0,38.3,31.4,21.0,-003.6,0005.90,0010.37,0005.49
2022-09-23 14:13:00,,0825.3,4.99,0.00,29.5,28.1,00.0,38.3,31.4,21.0,-003.5,0006.06,0010.05,0005.64
2022-09-23 14:14:00,,0825.4,5.00,0.00,29.6,28.1,00.0,38.3,31.4,21.6,-003.3,0006.36,0010.32,0005.93
2022-09-23 14:15:00,,0825.4,4.99,0.00,29.6,28.1,00.0,38.3,31.4,21.4,-003.3,0006.59,0010.44,0006.20
2022-09-23 14:16:00,,0825.4,5.01,0.00,29.6,28.1,00.0,38.3,31.4,19.7,-003.1,0006.76,0011.00,0006.37
2022-09-23 14:17:00,,0825.3,4.99,0.00,29.6,28.1,00.0,38.3,31.4,17.2,-002.9,0006.64,0011.64,0006.26
2022-09-23 14:18:00,,0825.4,5.01,0.00,29.6,28.2,00.0,38.3,31.4,16.2,-003.1,0006.28,0010.92,0005.92
2022-09-23 14:19:00,,0825.3,4.99,0.00,29.6,28.2,00.0,38.3,31.4,17.5,-002.9,0005.94,0010.54,0005.54
2022-09-23 14:20:00,,0825.3,5.01,0.00,29.6,28.2,00.0,38.3,31.4,15.3,-002.6,0005.40,0010.06,0005.00
2022-09-23 14:21:00,,0825.4,5.00,0.00,29.6,28.2,00.0,38.3,31.4,13.8,-002.0,0004.93,0009.87,0004.52
2022-09-23 14:22:00,,0825.4,5.00,0.00,29.6,28.2,00.0,38.3,31.4,16.3,-001.7,0004.65,0010.16,0004.23
2022-09-23 14:23:00,,0825.5,4.99,0.00,29.6,28.2,00.0,38.3,31.5,16.6,-000.8,0004.43,0009.98,0004.01
2022-09-23 14:24:00,,0825.5,5.00,0.00,29.6,28.2,00.0,38.3,31.4,16.6,-000.0,0004.22,0009.80,0003.78
2022-09-23 14:25:00,,0825.4,4.99,0.00,29.6,28.2,00.0,38.3,31.5,16.6,0000.0,0003.96,0009.61,0003.50
2022-09-23 14:26:00,,0825.4,5.01,0.00,29.6,28.2,00.0,38.3,31.5,16.4,0000.0,0003.77,0009.46,0003.29
2022-09-23 14:27:00,,0825.4,4.99,0.00,29.7,28.3,00.0,38.4,31.5,16.4,0000.0,0003.54,0009.99,0003.02
2022-09-23 14:28:00,,0825.4,5.00,0.00,29.7,28.3,00.0,38.4,31.5,16.8,0000.0,0003.42,0009.36,0002.82
2022-09-23 14:29:00,,0825.4,4.99,0.00,29.7,28.3,00.0,38.4,31.6,15.4,0000.0,0003.36,0008.68,0002.73
2022-09-23 14:30:00,,0825.5,5.01,0.00,29.7,28.3,00.0,38.4,31.5,16.3,0000.0,0003.26,0008.53,0002.57
2022-09-23 14:31:00,,0825.6,5.00,0.00,29.7,28.3,00.0,38.4,31.5,13.8,0000.0,0003.20,0008.56,0002.47
2022-09-23 14:32:00,,0825.5,4.99,0.00,29.7,28.3,00.0,38.4,31.5,15.1,0000.0,0003.20,0008.67,0002.46
2022-09-23 14:33:00,,0825.5,5.00,0.00,29.7,28.3,00.0,38.4,31.6,15.6,0000.0,0003.21,0008.07,0002.49
2022-09-23 14:34:00,,0825.6,4.99,0.00,29.7,28.3,00.0,38.4,31.6,14.1,0000.0,0003.18,0008.04,0002.39
2022-09-23 14:35:00,,0825.6,5.01,0.00,29.7,28.3,00.0,38.4,31.6,17.8,0000.0,0003.16,0007.92,0002.41
2022-09-23 14:36:00,,0825.6,4.99,0.00,29.7,28.3,00.0,38.4,31.6,18.2,0000.0,0003.21,0008.15,0002.53
2022-09-23 14:37:00,,0825.6,5.01,0.00,29.7,28.3,00.0,38.4,31.6,18.9,0000.0,0003.29,0008.48,0002.68
2022-09-23 14:38:00,,0825.5,4.99,0.00,29.7,28.3,00.0,38.4,31.5,20.0,0000.0,0003.44,0007.57,0002.94
2022-09-23 14:39:00,,0825.6,5.01,0.00,29.7,28.3,00.0,38.4,31.6,15.8,0000.0,0003.46,0007.37,0002.99
2022-09-23 14:40:00,,0825.6,4.99,0.00,29.7,28.3,00.0,38.5,31.6,16.0,0000.0,0003.50,0007.44,0003.03
2022-09-23 14:41:00,,0825.5,5.01,0.00,29.7,28.3,00.0,38.4,31.6,14.8,0000.0,0003.50,0007.43,0003.01
2022-09-23 14:42:00,,0825.5,4.99,0.00,29.7,28.3,00.0,38.4,31.6,16.5,0000.0,0003.52,0007.39,0003.06
2022-09-23 14:43:00,,0825.5,5.01,0.00,29.7,28.3,00.0,38.5,31.6,17.6,0000.0,0003.58,0007.02,0003.16
2022-09-23 14:44:00,,0825.3,4.99,0.00,29.7,28.3,00.0,38.4,31.6,18.1,0000.0,0003.63,0007.19,0003.20
2022-09-23 14:45:00,,0825.3,5.00,0.00,29.7,28.3,00.0,38.5,31.5,14.6,0000.0,0003.67,0007.81,0003.26
2022-09-23 14:46:00,,0825.4,5.01,0.00,29.7,28.2,00.0,38.5,31.5,13.1,0000.0,0003.66,0009.00,0003.22
2022-09-23 14:47:00,,0825.3,5.00,0.00,29.7,28.2,00.0,38.5,31.5,13.0,0000.0,0003.55,0008.68,0003.10
2022-09-23 14:48:00,,0825.4,4.99,0.00,29.7,28.2,00.0,38.5,31.5,13.3,0000.0,0003.44,0008.30,0002.88
2022-09-23 14:49:00,,0825.4,5.01,0.00,29.7,28.2,00.0,38.5,31.5,14.3,0000.0,0003.27,0008.11,0002.56
2022-09-23 14:50:00,,0825.3,5.00,0.00,29.7,28.2,00.0,38.5,31.6,13.2,0000.0,0003.21,0007.93,0002.44
2022-09-23 14:51:00,,0825.4,5.00,0.00,29.7,28.3,00.0,38.5,31.6,12.3,0000.0,0003.14,0007.83,0002.35
2022-09-23 14:52:00,,0825.5,5.01,0.00,29.7,28.3,00.0,38.5,31.6,13.8,0000.0,0003.11,0007.80,0002.31
2022-09-23 14:53:00,,0825.4,4.99,0.00,29.7,28.3,00.0,38.5,31.6,14.3,0000.0,0003.06,0007.85,0002.25
2022-09-23 14:54:00,,0825.4,5.01,0.00,29.7,28.3,00.0,38.5,31.6,14.4,0000.0,0002.93,0008.37,0002.11
2022-09-23 14:55:00,,0825.4,4.99,0.00,29.7,28.3,00.0,38.5,31.5,13.2,0000.0,0002.75,0008.18,0001.97
2022-09-23 14:56:00,,0825.5,5.02,0.00,29.7,28.3,00.0,38.5,31.6,13.0,0000.0,0002.59,0007.75,0001.84
2022-09-23 14:57:00,,0825.6,4.99,0.00,29.7,28.3,00.0,38.5,31.6,13.5,0000.0,0002.56,0006.20,0001.83
2022-09-23 14:58:00,,0825.5,5.02,0.00,29.7,28.3,00.0,38.5,31.6,15.9,0000.0,0002.60,0006.58,0001.89
2022-09-23 14:59:00,,0825.5,4.98,0.00,29.8,28.3,00.0,38.5,31.6,18.1,0000.0,0002.65,0007.51,0002.02
